EW4338 Weather Reports


Display with metric or nautical units.
time (UTC)temp
F
wind
direction
speed
MPH
gust
MPH
rain 1hr
in
rain 24hr
in
rain mn
in
humidity
%
barometer
mb
20220812175048 78 9 0.0 0.0 0.00 0.00 0.00 43 1019.2
20220812174549 77 23 0.0 0.0 0.00 0.00 0.00 42 1019.3
20220812174043 77 40 0.0 0.0 0.00 0.00 0.00 41 1019.3
20220812173548 77 42 0.0 0.0 0.00 0.00 0.00 40 1019.4
20220812173044 77 40 0.0 0.0 0.00 0.00 0.00 42 1019.5
20220812172544 77 54 0.0 0.0 0.00 0.00 0.00 39 1019.6
20220812172043 76 16 0.0 0.0 0.00 0.00 0.00 42 1019.6
20220812171543 76 32 0.0 0.0 0.00 0.00 0.00 38 1019.7
20220812171044 77 32 0.0 0.0 0.00 0.00 0.00 41 1019.7
20220812170535 76 15 0.0 0.0 0.00 0.00 0.00 44 1019.8
20220812170051 76 4 0.0 0.0 0.00 0.00 0.00 40 1019.7
20220812165541 76 18 0.0 0.0 0.00 0.00 0.00 40 1019.8
20220812165033 76 59 0.0 0.0 0.00 0.00 0.00 44 1019.9
20220812164604 76 19 0.0 0.0 0.00 0.00 0.00 41 1019.9
20220812164037 76 9 0.0 0.0 0.00 0.00 0.00 42 1020.0
20220812163529 76 28 0.0 0.0 0.00 0.00 0.00 42 1019.9
20220812163028 76 31 0.0 0.0 0.00 0.00 0.00 43 1019.9
20220812162527 76 35 0.0 0.0 0.00 0.00 0.00 41 1019.9
20220812162029 76 42 0.0 0.0 0.00 0.00 0.00 40 1020.0
20220812161525 76 41 0.0 0.0 0.00 0.00 0.00 40 1019.9
20220812161009 76 49 0.0 0.0 0.00 0.00 0.00 41 1020.0
20220812160502 76 38 0.0 0.0 0.00 0.00 0.00 41 1020.0
20220812160107 75 34 0.0 0.0 0.00 0.00 0.00 42 1020.1
20220812155508 75 46 0.0 0.0 0.00 0.00 0.00 42 1020.1
20220812155006 75 67 0.0 0.0 0.00 0.00 0.00 42 1020.1
20220812154504 74 8 0.0 0.0 0.00 0.00 0.00 43 1020.0
20220812154007 74 98 0.0 0.0 0.00 0.00 0.00 43 1020.0
20220812153502 73 88 0.0 0.0 0.00 0.00 0.00 43 1020.0
20220812153001 73 76 0.0 0.0 0.00 0.00 0.00 44 1020.1
20220812152602 73 73 0.0 0.0 0.00 0.00 0.00 45 1020.1
20220812152058 72 49 0.0 0.0 0.00 0.00 0.00 43 1020.1
20220812151612 72 86 0.0 0.0 0.00 0.00 0.00 44 1020.0
20220812151055 72 92 0.0 0.0 0.00 0.00 0.00 44 1020.0
20220812150556 72 88 0.0 0.0 0.00 0.00 0.00 44 1020.1
20220812150059 72 73 0.0 0.0 0.00 0.00 0.00 46 1020.1
20220812145556 71 60 0.0 0.0 0.00 0.00 0.00 45 1020.1
20220812145050 71 57 0.0 0.0 0.00 0.00 0.00 45 1020.0
20220812144549 71 69 0.0 0.0 0.00 0.00 0.00 44 1020.0
20220812144052 71 66 0.0 0.0 0.00 0.00 0.00 45 1020.1
20220812143553 71 75 0.0 0.0 0.00 0.00 0.00 46 1020.0
20220812143049 70 91 0.0 0.0 0.00 0.00 0.00 46 1020.0
20220812142546 70 91 0.0 0.0 0.00 0.00 0.00 45 1019.9
20220812142045 70 94 0.0 0.0 0.00 0.00 0.00 44 1019.8
20220812141551 70 104 0.0 0.0 0.00 0.00 0.00 44 1019.7
20220812141046 69 235 0.0 0.0 0.00 0.00 0.00 44 1019.6
20220812140540 70 235 0.0 0.0 0.00 0.00 0.00 43 1019.5
20220812140105 70 235 0.0 0.0 0.00 0.00 0.00 43 1019.5
20220812135534 71 78 0.0 0.0 0.00 0.00 0.00 44 1019.5
20220812135033 71 78 0.0 0.0 0.00 0.00 0.00 48 1019.5
20220812134600 70 235 0.0 0.0 0.00 0.00 0.00 45 1019.5
20220812134030 70 235 0.0 0.0 0.00 0.00 0.00 48 1019.5
20220812133527 69 235 0.0 0.0 0.00 0.00 0.00 48 1019.4
20220812133032 68 235 0.0 0.0 0.00 0.00 0.00 47 1019.4
20220812132530 67 235 0.0 0.0 0.00 0.00 0.00 49 1019.3
20220812132028 66 235 0.0 0.0 0.00 0.00 0.00 49 1019.2
20220812131525 65 235 0.0 0.0 0.00 0.00 0.00 51 1019.3
20220812131020 65 235 0.0 0.0 0.00 0.00 0.00 51 1019.2
20220812130524 65 235 0.0 0.0 0.00 0.00 0.00 50 1019.1
20220812130050 65 235 0.0 0.0 0.00 0.00 0.00 49 1019.1
20220812125524 65 7 0.0 0.0 0.00 0.00 0.00 47 1019.1
20220812125017 65 17 0.0 0.0 0.00 0.00 0.00 52 1019.1
20220812124515 64 17 0.0 0.0 0.00 0.00 0.00 52 1019.2
20220812124014 64 17 0.0 0.0 0.00 0.00 0.00 52 1019.1
20220812123519 64 19 0.0 0.0 0.00 0.00 0.00 51 1019.1
20220812123018 64 19 0.0 0.0 0.00 0.00 0.00 48 1019.1
20220812122515 64 24 0.0 0.0 0.00 0.00 0.00 48 1019.0
20220812122014 65 28 0.0 0.0 0.00 0.00 0.00 47 1018.9
20220812121506 65 42 0.0 0.0 0.00 0.00 0.00 46 1018.8
20220812121009 65 17 0.0 0.0 0.00 0.00 0.00 45 1018.7
20220812120510 66 19 0.0 0.0 0.00 0.00 0.00 45 1018.7
20220812120009 66 22 0.0 0.0 0.00 0.00 0.00 44 1018.6
20220812115502 67 16 0.0 0.0 0.00 0.00 0.00 43 1018.5
20220812115103 68 19 0.0 0.0 0.00 0.00 0.00 42 1018.3
20220812114638 69 23 0.0 0.0 0.00 0.00 0.00 41 1018.2
20220812114101 69 360 0.0 0.0 0.00 0.00 0.00 40 1018.2
20220812113557 69 235 0.0 0.0 0.00 0.00 0.00 38 1018.1
20220812113111 69 235 0.0 0.0 0.00 0.00 0.00 39 1018.0
20220812112558 69 235 0.0 0.0 0.00 0.00 0.00 39 1017.9
20220812112057 69 235 0.0 0.0 0.00 0.00 0.00 40 1017.8
20220812111606 69 235 0.0 0.0 0.00 0.00 0.00 40 1017.6
20220812111054 69 235 0.0 0.0 0.00 0.00 0.00 39 1017.7
20220812110558 69 11 0.0 0.0 0.00 0.00 0.00 39 1017.7
20220812110055 69 11 0.0 0.0 0.00 0.00 0.00 40 1017.7
20220812105558 69 11 0.0 0.0 0.00 0.00 0.00 40 1017.7
20220812105053 69 11 0.0 0.0 0.00 0.00 0.00 40 1017.8
20220812104553 69 11 0.0 0.0 0.00 0.00 0.00 41 1017.7
20220812104052 69 11 0.0 0.0 0.00 0.00 0.00 41 1017.7
20220812103553 69 11 0.0 0.0 0.00 0.00 0.00 41 1017.7
20220812103052 68 11 0.0 0.0 0.00 0.00 0.00 41 1017.7
20220812102552 69 11 0.0 0.0 0.00 0.00 0.00 41 1017.6
20220812102052 69 11 0.0 0.0 0.00 0.00 0.00 39 1017.6
20220812101548 70 11 0.0 0.0 0.00 0.00 0.00 38 1017.6
20220812101054 70 11 0.0 0.0 0.00 0.00 0.00 38 1017.7
20220812100547 71 319 0.0 0.0 0.00 0.00 0.00 36 1017.6
20220812100047 71 318 0.0 0.0 0.00 0.00 0.00 36 1017.6
20220812095546 71 235 0.0 0.0 0.00 0.00 0.00 36 1017.5
20220812095049 71 235 0.0 0.0 0.00 0.00 0.00 36 1017.5
20220812094545 71 235 0.0 0.0 0.00 0.00 0.00 37 1017.4
20220812094054 70 321 0.0 0.0 0.00 0.00 0.00 38 1017.4
20220812093547 70 235 0.0 0.0 0.00 0.00 0.00 38 1017.3
20220812093050 70 235 0.0 0.0 0.00 0.00 0.00 38 1017.3
20220812092546 70 235 0.0 0.0 0.00 0.00 0.00 39 1017.3
20220812092045 71 235 0.0 0.0 0.00 0.00 0.00 39 1017.3
20220812091642 71 235 0.0 0.0 0.00 0.00 0.00 39 1017.2
20220812091043 72 235 0.0 0.0 0.00 0.00 0.00 38 1017.3
20220812090544 72 235 0.0 0.0 0.00 0.00 0.00 39 1017.3
20220812090059 71 235 0.0 0.0 0.00 0.00 0.00 39 1017.3
20220812085646 71 235 0.0 0.0 0.00 0.00 0.00 39 1017.3
20220812085041 71 235 0.0 0.0 0.00 0.00 0.00 39 1017.3
20220812084553 71 235 0.0 0.0 0.00 0.00 0.00 39 1017.3
20220812084045 70 235 0.0 0.0 0.00 0.00 0.00 39 1017.3
20220812083540 70 235 0.0 0.0 0.00 0.00 0.00 39 1017.2
20220812083050 70 235 0.0 0.0 0.00 0.00 0.00 40 1017.3
20220812082539 70 235 0.0 0.0 0.00 0.00 0.00 39 1017.2
20220812082040 70 235 0.0 0.0 0.00 0.00 0.00 39 1017.2
20220812081539 70 235 0.0 0.0 0.00 0.00 0.00 39 1017.1
20220812081040 70 235 0.0 0.0 0.00 0.00 0.00 39 1017.1
20220812080543 70 235 0.0 0.0 0.00 0.00 0.00 39 1017.0
20220812080119 70 235 0.0 0.0 0.00 0.00 0.00 39 1017.0
20220812075538 70 235 0.0 0.0 0.00 0.00 0.00 39 1017.1
20220812075039 70 235 0.0 0.0 0.00 0.00 0.00 39 1017.0
20220812074541 70 235 0.0 0.0 0.00 0.00 0.00 39 1017.1
20220812074043 71 235 0.0 0.0 0.00 0.00 0.00 38 1017.1
20220812073536 71 235 0.0 0.0 0.00 0.00 0.00 38 1017.0
20220812073050 71 235 0.0 0.0 0.00 0.00 0.00 39 1016.9
20220812072535 71 235 0.0 0.0 0.00 0.00 0.00 39 1016.9
20220812072033 70 235 0.0 0.0 0.00 0.00 0.00 39 1016.9
20220812071534 70 235 0.0 0.0 0.00 0.00 0.00 39 1017.0
20220812071033 71 235 0.0 0.0 0.00 0.00 0.00 39 1017.0
20220812070533 71 235 0.0 0.0 0.00 0.00 0.00 39 1017.0
20220812070046 71 235 0.0 0.0 0.00 0.00 0.00 39 1016.9
20220812065536 70 235 0.0 0.0 0.00 0.00 0.00 39 1017.0
20220812065032 70 235 0.0 0.0 0.00 0.00 0.00 38 1017.1
20220812064538 70 235 0.0 0.0 0.00 0.00 0.00 38 1017.0
20220812064031 71 235 0.0 0.0 0.00 0.00 0.00 39 1017.0
20220812063531 71 235 0.0 0.0 0.00 0.00 0.00 39 1017.0
20220812063050 71 235 0.0 0.0 0.00 0.00 0.00 39 1017.1
20220812062526 71 235 0.0 0.0 0.00 0.00 0.00 39 1017.1
20220812062030 71 235 0.0 0.0 0.00 0.00 0.00 39 1017.3
20220812061525 71 235 0.0 0.0 0.00 0.00 0.00 39 1017.3
20220812061033 71 235 0.0 0.0 0.00 0.00 0.00 39 1017.3
20220812060532 72 91 0.0 0.0 0.00 0.00 0.00 39 1017.4
20220812060027 72 97 0.0 0.0 0.00 0.00 0.00 39 1017.3
20220812055524 72 19 0.0 0.0 0.00 0.00 0.00 40 1017.3
20220812055022 72 19 0.0 0.0 0.00 0.00 0.00 40 1017.2
20220812054526 72 8 0.0 0.0 0.00 0.00 0.00 41 1017.2
20220812054025 72 6 0.0 0.0 0.00 0.00 0.00 41 1017.2
20220812053522 72 11 0.0 0.0 0.00 0.00 0.00 40 1017.3
20220812053032 72 26 0.0 0.0 0.00 0.00 0.00 39 1017.2
20220812052522 73 21 0.0 0.0 0.00 0.00 0.00 39 1017.1
20220812052021 73 21 0.0 0.0 0.00 0.00 0.00 38 1017.1
20220812051541 74 235 0.0 0.0 0.00 0.00 0.00 37 1017.0
20220812051023 74 235 0.0 0.0 0.00 0.00 0.00 36 1017.0
20220812050522 74 235 0.0 0.0 0.00 0.00 0.00 36 1017.0
20220812050050 74 235 0.0 0.0 0.00 0.00 0.00 36 1017.0
20220812045524 74 235 0.0 0.0 0.00 0.00 0.00 36 1017.0
20220812045027 73 235 0.0 0.0 0.00 0.00 0.00 37 1017.0
20220812044535 73 235 0.0 0.0 0.00 0.00 0.00 37 1017.0
20220812044020 73 235 0.0 0.0 0.00 0.00 0.00 37 1017.0
20220812043522 73 235 0.0 0.0 0.00 0.00 0.00 37 1017.0
20220812043031 74 235 0.0 0.0 0.00 0.00 0.00 37 1017.0
20220812042520 73 235 0.0 0.0 0.00 0.00 0.00 37 1017.0
20220812042019 73 235 0.0 0.0 0.00 0.00 0.00 38 1017.0
20220812041519 73 235 0.0 0.0 0.00 0.00 0.00 38 1017.0
20220812041023 72 235 0.0 0.0 0.00 0.00 0.00 39 1017.0
20220812040521 72 235 0.0 0.0 0.00 0.00 0.00 40 1017.0
20220812040019 72 235 0.0 0.0 0.00 0.00 0.00 40 1016.9
20220812035525 72 235 0.0 0.0 0.00 0.00 0.00 40 1016.9
20220812035025 72 235 0.0 0.0 0.00 0.00 0.00 41 1016.9
20220812034536 72 235 0.0 0.0 0.00 0.00 0.00 42 1016.9
20220812034019 72 235 0.0 0.0 0.00 0.00 0.00 40 1016.9
20220812033525 73 235 0.0 0.0 0.00 0.00 0.00 39 1017.0
20220812033024 74 235 0.0 0.0 0.00 0.00 0.00 39 1016.8
20220812032517 74 235 0.0 0.0 0.00 0.00 0.00 38 1016.8
20220812032019 74 235 0.0 0.0 0.00 0.00 0.00 38 1016.8
20220812031530 74 235 0.0 0.0 0.00 0.00 0.00 37 1016.7
20220812031017 75 88 0.0 0.0 0.00 0.00 0.00 37 1016.6
20220812030517 77 67 0.0 0.0 0.00 0.00 0.00 33 1016.6
20220812030022 77 235 0.0 0.0 0.00 0.00 0.00 33 1016.5
20220812025519 77 235 0.0 0.0 0.00 0.00 0.00 34 1016.4
20220812025025 76 235 0.0 0.0 0.00 0.00 0.00 34 1016.4
20220812024516 75 235 0.0 0.0 0.00 0.00 0.00 35 1016.4
20220812024019 75 235 0.0 0.0 0.00 0.00 0.00 37 1016.3
20220812023516 75 235 0.0 0.0 0.00 0.00 0.00 37 1016.2
20220812023015 75 235 0.0 0.0 0.00 0.00 0.00 37 1016.1
20220812022519 75 235 0.0 0.0 0.00 0.00 0.00 37 1016.0
20220812022015 76 235 0.0 0.0 0.00 0.00 0.00 36 1015.9
20220812021515 76 235 0.0 0.0 0.00 0.00 0.00 36 1015.8
20220812021014 76 235 0.0 0.0 0.00 0.00 0.00 36 1015.7
20220812020520 76 323 0.0 0.0 0.00 0.00 0.00 36 1015.7
20220812020028 76 323 0.0 0.0 0.00 0.00 0.00 36 1015.8
20220812015514 76 323 0.0 0.0 0.00 0.00 0.00 36 1015.8
20220812015016 77 323 0.0 0.0 0.00 0.00 0.00 36 1015.7
20220812014535 77 323 0.0 0.0 0.00 0.00 0.00 36 1015.8
20220812014013 77 323 0.0 0.0 0.00 0.00 0.00 37 1015.8
20220812013513 78 323 0.0 0.0 0.00 0.00 0.00 37 1015.9
20220812013013 78 323 0.0 0.0 0.00 0.00 0.00 37 1015.8
20220812012513 78 323 0.0 0.0 0.00 0.00 0.00 37 1015.8
20220812012016 78 323 0.0 0.0 0.00 0.00 0.00 37 1015.9
20220812011517 79 323 0.0 0.0 0.00 0.00 0.00 37 1015.8
20220812011015 79 323 0.0 0.0 0.00 0.00 0.00 37 1015.8
20220812010519 79 323 0.0 0.0 0.00 0.00 0.00 37 1015.8
20220812010012 80 323 0.0 0.0 0.00 0.00 0.00 36 1015.8
20220812005512 80 323 0.0 0.0 0.00 0.00 0.00 35 1015.9
20220812005011 80 323 0.0 0.0 0.00 0.00 0.00 35 1015.9
20220812004511 81 323 0.0 0.0 0.00 0.00 0.00 34 1016.0
20220812004017 81 325 0.0 0.0 0.00 0.00 0.00 35 1016.1
20220812003515 81 332 0.0 0.0 0.00 0.00 0.00 34 1016.0
20220812003014 81 332 0.0 0.0 0.00 0.00 0.00 34 1016.1
20220812002509 82 333 0.0 0.0 0.00 0.00 0.00 34 1016.1
20220812002009 82 235 0.0 0.0 0.00 0.00 0.00 34 1016.1
20220812001508 81 235 0.0 0.0 0.00 0.00 0.00 35 1016.1
20220812001009 81 38 0.0 0.0 0.00 0.00 0.00 36 1016.2
20220812000507 81 38 0.0 0.0 0.00 0.00 0.00 36 1016.2
20220812000007 81 38 0.0 0.0 0.00 0.00 0.00 37 1016.2
20220811235507 81 38 0.0 0.0 0.00 0.00 0.00 34 1016.2
20220811235007 81 38 0.0 0.0 0.00 0.00 0.00 36 1016.3
20220811234506 81 38 0.0 0.0 0.00 0.00 0.00 34 1016.3
20220811234008 80 38 0.0 0.0 0.00 0.00 0.00 35 1016.3
20220811233507 80 38 0.0 0.0 0.00 0.00 0.00 34 1016.4
20220811233004 80 38 0.0 0.0 0.00 0.00 0.00 36 1016.5
20220811232506 80 38 0.0 0.0 0.00 0.00 0.00 35 1016.4
20220811232003 80 38 0.0 0.0 0.00 0.00 0.00 36 1016.5
20220811231503 80 38 0.0 0.0 0.00 0.00 0.00 36 1016.5
20220811231009 80 38 0.0 0.0 0.00 0.00 0.00 37 1016.6
20220811230509 80 38 0.0 0.0 0.00 0.00 0.00 37 1016.6
20220811230006 80 40 0.0 0.0 0.00 0.00 0.00 36 1016.6
20220811225505 80 21 0.0 0.0 0.00 0.00 0.00 36 1016.5
20220811225004 80 29 0.0 0.0 0.00 0.00 0.00 35 1016.5
20220811224502 80 49 0.0 0.0 0.00 0.00 0.00 34 1016.5
20220811224004 81 32 0.0 0.0 0.00 0.00 0.00 35 1016.5
20220811223604 81 57 0.0 0.0 0.00 0.00 0.00 34 1016.6
20220811223100 81 59 0.0 0.0 0.00 0.00 0.00 33 1016.5
20220811222604 81 68 0.0 0.0 0.00 0.00 0.00 33 1016.6
20220811222105 81 50 0.0 0.0 0.00 0.00 0.00 33 1016.6
20220811221624 82 42 0.0 0.0 0.00 0.00 0.00 33 1016.6
20220811221103 83 38 0.0 0.0 0.00 0.00 0.00 32 1016.7
20220811220601 84 356 0.0 0.0 0.00 0.00 0.00 32 1016.7
20220811220103 85 12 0.0 0.0 0.00 0.00 0.00 32 1016.7
20220811215557 84 7 0.0 0.0 0.00 0.00 0.00 33 1016.7
20220811215057 84 12 0.0 0.0 0.00 0.00 0.00 32 1016.8
20220811214556 84 5 0.0 0.0 0.00 0.00 0.00 31 1016.8
20220811214058 84 13 0.0 0.0 0.00 0.00 0.00 32 1016.9
20220811213555 84 9 0.0 0.0 0.00 0.00 0.00 31 1016.9
20220811213138 84 10 0.0 0.0 0.00 0.00 0.00 32 1017.0
20220811212553 84 25 0.0 0.0 0.00 0.00 0.00 31 1017.1
20220811212053 84 34 0.0 0.0 0.00 0.00 0.00 31 1017.2
20220811211558 84 16 0.0 0.0 0.00 0.00 0.00 31 1017.1
20220811211058 83 9 0.0 0.0 0.00 0.00 0.00 34 1017.0
20220811210551 83 7 0.0 0.0 0.00 0.00 0.00 32 1017.0
20220811210055 83 9 0.0 0.0 0.00 0.00 0.00 33 1017.0
20220811205551 83 22 0.0 0.0 0.00 0.00 0.00 30 1017.0
20220811205048 83 29 0.0 0.0 0.00 0.00 0.00 33 1017.1
20220811204559 83 7 0.0 0.0 0.00 0.00 0.00 33 1017.1
20220811204049 83 4 0.0 0.0 0.00 0.00 0.00 34 1017.2
20220811203549 83 29 0.0 0.0 0.00 0.00 0.00 31 1017.3
20220811203046 83 15 0.0 0.0 0.00 0.00 0.00 34 1017.3
20220811202548 83 44 0.0 0.0 0.00 0.00 0.00 33 1017.5
20220811202045 83 56 0.0 0.0 0.00 0.00 0.00 33 1017.5
20220811201543 82 7 0.0 0.0 0.00 0.00 0.00 35 1017.6
20220811201042 82 41 0.0 0.0 0.00 0.00 0.00 34 1017.6
20220811200543 82 52 0.0 0.0 0.00 0.00 0.00 33 1017.8
20220811200041 82 40 0.0 0.0 0.00 0.00 0.00 32 1017.7
20220811195544 82 21 0.0 0.0 0.00 0.00 0.00 32 1017.8
20220811195039 82 22 0.0 0.0 0.00 0.00 0.00 36 1017.8
20220811194606 81 67 0.0 0.0 0.00 0.00 0.00 35 1017.8
20220811194040 81 42 0.0 0.0 0.00 0.00 0.00 35 1017.9
20220811193542 81 10 0.0 0.0 0.00 0.00 0.00 37 1018.0
20220811193103 81 71 0.0 0.0 0.00 0.00 0.00 36 1018.1
20220811192537 81 21 0.0 0.0 0.00 0.00 0.00 36 1018.1
20220811192039 81 45 0.0 0.0 0.00 0.00 0.00 36 1018.1
20220811191546 82 46 0.0 0.0 0.00 0.00 0.00 36 1018.1
20220811191037 81 8 0.0 0.0 0.00 0.00 0.00 39 1018.1
20220811190535 81 12 0.0 0.0 0.00 0.00 0.00 38 1018.1
20220811190034 81 23 0.0 0.0 0.00 0.00 0.00 40 1018.1
20220811185605 81 46 0.0 0.0 0.00 0.00 0.00 39 1018.2
20220811185037 80 36 0.0 0.0 0.00 0.00 0.00 39 1018.2
20220811184540 80 44 0.0 0.0 0.00 0.00 0.00 38 1018.2
20220811184039 80 25 0.0 0.0 0.00 0.00 0.00 37 1018.2
20220811183532 80 16 0.0 0.0 0.00 0.00 0.00 39 1018.3
20220811183037 81 14 0.0 0.0 0.00 0.00 0.00 38 1018.3
20220811182530 81 27 0.0 0.0 0.00 0.00 0.00 39 1018.3
20220811182029 81 19 0.0 0.0 0.00 0.00 0.00 38 1018.3
20220811181528 81 37 0.0 0.0 0.00 0.00 0.00 36 1018.3
20220811181035 81 24 0.0 0.0 0.00 0.00 0.00 36 1018.4
20220811180528 81 21 0.0 0.0 0.00 0.00 0.00 38 1018.4
20220811180025 80 40 0.0 0.0 0.00 0.00 0.00 37 1018.4
20220811175525 80 30 0.0 0.0 0.00 0.00 0.00 38 1018.4